Flag for Nepal Weather past 2 weeks in Pokhara, Nepal

Now
72 °F

Partly cloudy.


Feels Like: 67 °F
Forecast: 66 / 86 °F
Wind: No wind

Location: Kathmandu Airport

Current Time: Aug 2, 2014 at 6:48:21 AM

Latest Report: Aug 2, 2014 at 5:35 AM


Visibility: 4 mi

Pressure: 29.77 "Hg

Humidity: 94%

Dew point: 70 °F

Location of PokharaLocation

Historic Weather in Pokhara — Graph

°F

Pokhara temperature yesterday

Maximum temperature yesterday: 82 °F (at 11:35 AM)
Minimum temperature yesterday: 73 °F (at 10:35 PM)
Average temperature yesterday: 79 °F

Past Weeks' High & Low Weather Summary

 TemperatureHumidityPressure
High84 °F (Jul 19, 1:35 PM)100% (Jul 24, 4:35 AM)29.98 "Hg (Jul 24, 4:35 AM)
Low68 °F (Jul 24, 4:35 AM)48% (Jul 27, 1:35 PM)29.62 "Hg (Jul 19, 4:35 PM)
Average75 °F78%29.82 "Hg
* Reported Jul 18 9:35 AM — Aug 2 5:35 AM, Pokhara, Weather by CustomWeather, © 2014

Note: Actual official high and low records may vary slightly from our data, if they occured in-between our weather recording intervals... More about our weather records

Advertising

Pokhara weather history for previous 24 hours

 ConditionsComfort  
Time TempWeatherWind HumidityBarometerVisibility
5:35 AM
Aug 2
72 °FPartly cloudy.No wind94%29.77 "Hg4 mi
2:35 AM73 °FPartly cloudy.7 mph89%29.77 "Hg5 mi
12:35 AM73 °FPartly cloudy.6 mph89%29.83 "Hg5 mi
11:35 PM
Aug 1
75 °FPartly cloudy.5 mph83%29.83 "Hg5 mi
10:35 PM73 °FPartly cloudy.5 mph89%29.83 "Hg5 mi
9:35 PM75 °FPartly cloudy.3 mph83%29.80 "Hg5 mi
8:35 PM75 °FPartly cloudy.3 mph78%29.77 "Hg5 mi
7:35 PM75 °FBroken clouds.3 mph78%29.77 "Hg5 mi
6:35 PM77 °FBroken clouds.8 mph74%29.74 "HgN/A
5:35 PM79 °FBroken clouds.10 mph70%29.74 "Hg5 mi
4:35 PM79 °FBroken clouds.13 mph70%29.71 "Hg5 mi
3:35 PM81 °FBroken clouds.9 mph66%29.74 "Hg5 mi
2:35 PM82 °FBroken clouds.7 mph66%29.74 "Hg5 mi
1:35 PM81 °FBroken clouds.6 mph70%29.77 "Hg5 mi
12:35 PM82 °FBroken clouds.6 mph66%29.80 "Hg5 mi
11:35 AM82 °FBroken clouds.5 mph66%29.83 "Hg5 mi
10:35 AM81 °FBroken clouds.No wind70%29.86 "Hg5 mi
9:35 AM81 °FBroken clouds.5 mph70%29.86 "Hg5 mi
Weather by CustomWeather, © 2014

See weather overviewHow to use our weather pages